Regional Weather Roundup
Issued by NWS Cleveland, OH

Home | Current Version | Previous Version | Graphics & Text | Print | Product List | Glossary On
Versions: 1 2 3 4 5 6 7 8 9 10 11 12 13 14 15 16 17 18 19 20 21 22 23 24 25 26 27 28 29 30 31 32 33 34 35 36 37 38 39 40 41 42 43 44 45 46 47 48 49 50
000
ASUS41 KCLE 010010
RWRCLE
OHIO REGIONAL WEATHER ROUNDUP
NATIONAL WEATHER SERVICE WILMINGTON, OH
800 PM EDT FRI OCT 31 2014

NOTE: "FAIR" INDICATES FEW OR NO CLOUDS BELOW 12,000 FEET WITH NO
SIGNIFICANT WEATHER AND/OR OBSTRUCTIONS TO VISIBILITY.

OHZ001>008-015>018-024>027-034-035-043-044-010100-
   NORTHWEST OHIO

CITY           SKY/WX    TMP DP  RH WIND       PRES   REMARKS
DEFIANCE       FLURRIES  37  30  75 N25G39    30.06R
FINDLAY        LGT RAIN  38  34  85 N23G35    29.97R
TOLEDO EXPRESS LGT SNOW  35  33  92 N17G26    30.02R FOG     WCI  25
TOLEDO METCALF FLURRIES  37  33  85 N24G36    30.01R
LIMA           LGT SNOW  38  50 100 N20G26    29.98R
$$

OHZ009>014-019>023-028>033-038-089-010100-
   NORTHEAST OHIO

CITY           SKY/WX    TMP DP  RH WIND       PRES   REMARKS
CLE-HOPKINS    LGT RAIN  44  39  82 CALM      29.92R
CLE-LAKEFRONT  LGT RAIN N/A N/A N/A CALM      29.90R
CUY CO. ARPT   CLOUDY    46  45  93 CALM      29.91R FOG
LORAIN-ELYRIA  LGT RAIN  43  41  93 CALM      29.91R
ASHTABULA      LGT RAIN  44  42  93 CALM      29.91R
AKRON-CANTON   LGT RAIN  44  39  82 CALM      29.88R
WOOSTER        LGT RAIN  44  40  85 N3        29.89R
MANSFIELD      LGT RAIN  41  40  96 N8        29.88R
YOUNGSTOWN     LGT RAIN  42  41  96 E3        29.89R FOG
$$

OHZ042-051>053-060>062-070>072-077>081-010100-
  SOUTHWEST OHIO

CITY           SKY/WX    TMP DP  RH WIND       PRES   REMARKS
CINC-COVINGTON CLOUDY    39  34  82 NW13      29.97R
CINC-LUNKEN    CLOUDY    40  34  79 NW8       29.99R
HAMILTON       LGT RAIN  40  36  86 W10       29.98R
DAYTON         LGT RAIN  40  37  89 N20G25    29.96R
WRIGHT-PAT AFB DRIZZLE   40  38  90 NW10      29.94R
DAYTON GENERAL LGT RAIN  39  37  92 NW8       29.94R
WILMINGTON     LGT RAIN  39  36  89 NW10      29.93R
$$

OHZ036-037-039>041-045>050-054>059-063>069-073>076-082>088-010100-
  CENTRAL AND SOUTHEAST OHIO

CITY           SKY/WX    TMP DP  RH WIND       PRES   REMARKS
COLUMBUS       CLOUDY    41  40  96 N13       29.89S
OSU AIRPORT    CLOUDY    41  37  86 NW8       29.90R
BOLTON FIELD   RAIN      39  38  94 NW9       29.91R
RICKENBACK AFB DRIZZLE   40  38  92 NW9       29.90S
NEWARK         LGT RAIN  42  38  85 NW3       29.88S
MARION         LGT RAIN  40  38  93 N15       29.91R
LANCASTER      LGT RAIN  42  39  89 NW8       29.89R
ZANESVILLE     LGT RAIN  42  39  89 NW3       29.88R
NEW PHILLY     LGT RAIN  44  41  89 CALM      29.89R
$$



USA.gov is the U.S. government's official web portal to all federal, state and local government web resources and services.